Regional Weather Roundup
Issued by NWS

Home | Current Version | Previous Version | Text Only | Print | Product List | Glossary Off
Versions: 1 2 3 4 5 6 7 8 9 10 11 12 13 14 15 16 17 18 19 20 21 22 23 24 25 26 27 28 29 30 31 32 33 34 35 36 37 38 39 40 41 42 43 44 45 46 47 48 49 50

000
ASUS43 KLMK 281802
RWRKY
KENTUCKY REGIONAL WEATHER ROUNDUP
NATIONAL WEATHER SERVICE LOUISVILLE KY
200 PM EDT THU AUG 28 2014

NOTE "FAIR" INDICATES FEW OR NO CLOUDS BELOW 12,000 FEET
WITH NO SIGNIFICANT WEATHER AND/OR OBSTRUCTIONS TO VISIBILITY.

KYZ001>023-026-027-061>063-070>075-281900-
WESTERN AND SOUTH CENTRAL KENTUCKY

CITY           SKY/WX    TMP DP  RH WIND       PRES   REMARKS
PADUCAH        MOSUNNY   91  73  55 W6        30.00F HX  99
HENDERSON      SUNNY     90  73  58 NE5       30.01F HX  98
OWENSBORO      PTSUNNY   86  75  69 E3        30.03F HX  95
HOPKINSVILLE   MOSUNNY   90  73  56 SE7       30.02F HX  98
BOWLING GREEN  SUNNY     89  71  55 VRB5      30.03F HX  95
GLASGOW        LGT RAIN  86  73  66 CALM      30.04F HX  93
$$

KYZ024-025-028>034-038-045-046-053-281900-
NORTH CENTRAL KENTUCKY

CITY           SKY/WX    TMP DP  RH WIND       PRES   REMARKS
LOUISVILLE/SDF PTSUNNY   91  71  51 VRB3      30.03F HX  97
LOUISVILLE/LOU PTSUNNY   87  70  56 VRB5      30.04F HX  92
FORT KNOX      MOSUNNY   86  73  66 SE5       30.04F HX  93
$$

KYZ035>037-039>044-047>052-055>060-089>105-281900-
NORTHEAST KENTUCKY

CITY           SKY/WX    TMP DP  RH WIND       PRES   REMARKS
LEXINGTON      MOSUNNY   83  73  72 NE7       30.08F
COVINGTON      MOSUNNY   82  63  52 E5        30.08F
FRANKFORT      PTSUNNY   82  72  71 E7        30.07S
$$

KYZ054-064>069-076>088-106>120-281900-
SOUTHEAST KENTUCKY

CITY           SKY/WX    TMP DP  RH WIND       PRES   REMARKS
JACKSON        PTSUNNY   80  71  74 CALM      30.11S
LONDON         MOSUNNY   87  69  54 N5        30.08F HX  91
SOMERSET       MOSUNNY   86  68  54 CALM      30.07F
MIDDLESBORO    SUNNY     87  71  60 NE3       30.07S HX  92
MONTICELLO     CLEAR     89  73  59 NE5       30.07F HX  96
$$




USA.gov is the U.S. government's official web portal to all federal, state and local government web resources and services.